ISS OBJECT XT

Last updated on Sun Apr 12 2026 00:02:13 GMT+0000 (Coordinated Universal Time)

1 66907U 98067XT 26101.43340154 .00287183 00000+0 11915-2 0 9999 2 66907 51.6204 256.9920 0009073 293.1451 66.8596 15.84392842 20340

Satellite not in orbit

ISS OBJECT XT